When you browse on this site, cookies collect data to enhance your experience and personalize the content and advertising you see.
Visit our Privacy Policy to learn more. By continuing to use the site, you agree to this use of cookies and data.
  • In Czech Republic
  • List of Countries
  • For 7 days
  • Water Temperature
  • Weather Map
  • Weather Widgets
  • user-avatar
    Login

    Hourly Weather Novyy Spor

    Today, 26 May, Tuesday

    Time Temperature Precipitation Wind Pressure Humidity
    00:00 +9°C° 0 mm 1 mps 755 mmHg 90%
    01:00 +9°C° 0 mm 1 mps 755 mmHg 92%
    02:00 +9°C° 0 mm 1 mps 755 mmHg 95%
    03:00 +9°C° 0 mm 1 mps 755 mmHg 94%
    04:00 +8°C° 0 mm 2 mps 755 mmHg 94%
    05:00 +9°C° 0 mm 2 mps 755 mmHg 93%
    06:00 +10°C° 0.1 mm 2 mps 756 mmHg 90%
    07:00 +12°C° 0.1 mm 2 mps 756 mmHg 88%
    08:00 +13°C° 0 mm 2 mps 756 mmHg 85%
    09:00 +14°C° 0.2 mm 2 mps 756 mmHg 80%
    10:00 +15°C° 0.2 mm 2 mps 756 mmHg 76%
    11:00 +16°C° 0.2 mm 2 mps 756 mmHg 72%
    12:00 +17°C° 0.3 mm 3 mps 756 mmHg 68%
    13:00 +18°C° 0.3 mm 3 mps 756 mmHg 64%
    14:00 +19°C° 0.3 mm 3 mps 756 mmHg 60%
    15:00 +18°C° 0.3 mm 3 mps 755 mmHg 63%
    16:00 +18°C° 0.3 mm 3 mps 755 mmHg 67%
    17:00 +17°C° 0.3 mm 3 mps 755 mmHg 70%
    18:00 +16°C° 0.2 mm 3 mps 755 mmHg 75%
    19:00 +15°C° 0.2 mm 2 mps 755 mmHg 81%
    20:00 +13°C° 0.2 mm 2 mps 755 mmHg 86%
    21:00 +12°C° 0 mm 2 mps 755 mmHg 88%
    22:00 +12°C° 0 mm 1 mps 755 mmHg 89%
    23:00 +11°C° 0 mm 1 mps 755 mmHg 91%

    Tomorrow, 27 May, Wednesday

    Time Temperature Precipitation Wind Pressure Humidity
    00:00 +10°C° 0 mm 1 mps 755 mmHg 92%
    01:00 +9°C° 0 mm 2 mps 755 mmHg 92%
    02:00 +9°C° 0 mm 2 mps 755 mmHg 93%
    03:00 +9°C° 0 mm 2 mps 755 mmHg 93%
    04:00 +9°C° 0 mm 2 mps 754 mmHg 92%
    05:00 +9°C° 0 mm 2 mps 754 mmHg 92%
    06:00 +12°C° 0 mm 2 mps 754 mmHg 86%
    07:00 +13°C° 0 mm 2 mps 755 mmHg 81%
    08:00 +15°C° 0 mm 2 mps 755 mmHg 76%
    09:00 +16°C° 0.4 mm 2 mps 754 mmHg 69%
    10:00 +17°C° 0.4 mm 3 mps 754 mmHg 62%
    11:00 +18°C° 0.4 mm 3 mps 754 mmHg 56%
    12:00 +19°C° 0.1 mm 3 mps 754 mmHg 53%
    13:00 +19°C° 0.1 mm 3 mps 753 mmHg 51%
    14:00 +19°C° 0.1 mm 2 mps 753 mmHg 48%
    15:00 +19°C° 0.1 mm 2 mps 753 mmHg 53%
    16:00 +19°C° 0.1 mm 2 mps 753 mmHg 58%
    17:00 +18°C° 0.1 mm 2 mps 753 mmHg 63%
    18:00 +16°C° 0.1 mm 2 mps 753 mmHg 70%
    19:00 +15°C° 0.1 mm 2 mps 753 mmHg 76%
    20:00 +13°C° 0.1 mm 2 mps 752 mmHg 83%
    21:00 +12°C° 0 mm 2 mps 752 mmHg 84%
    22:00 +12°C° 0 mm 1 mps 752 mmHg 85%
    23:00 +11°C° 0 mm 1 mps 752 mmHg 86%

    Day after tomorrow, 28 May, Thursday

    Time Temperature Precipitation Wind Pressure Humidity
    00:00 +11°C° 0 mm 1 mps 752 mmHg 87%
    01:00 +10°C° 0 mm 1 mps 752 mmHg 88%
    02:00 +10°C° 0 mm 1 mps 752 mmHg 89%
    03:00 +10°C° 0 mm 1 mps 752 mmHg 89%
    04:00 +9°C° 0 mm 2 mps 751 mmHg 89%
    05:00 +9°C° 0 mm 2 mps 751 mmHg 89%
    06:00 +12°C° 0 mm 2 mps 751 mmHg 81%
    07:00 +14°C° 0 mm 2 mps 751 mmHg 74%
    08:00 +16°C° 0 mm 2 mps 751 mmHg 66%
    09:00 +17°C° 0 mm 2 mps 751 mmHg 60%
    10:00 +18°C° 0 mm 2 mps 750 mmHg 54%
    11:00 +20°C° 0 mm 3 mps 750 mmHg 48%
    12:00 +20°C° 0 mm 3 mps 749 mmHg 48%
    13:00 +20°C° 0 mm 3 mps 749 mmHg 48%
    14:00 +21°C° 0 mm 3 mps 748 mmHg 47%
    15:00 +20°C° 0.2 mm 3 mps 748 mmHg 52%
    16:00 +20°C° 0.2 mm 3 mps 748 mmHg 57%
    17:00 +19°C° 0.2 mm 3 mps 748 mmHg 62%
    18:00 +18°C° 0.2 mm 3 mps 747 mmHg 69%
    19:00 +16°C° 0.2 mm 3 mps 747 mmHg 76%
    20:00 +13°C° 0.2 mm 3 mps 747 mmHg 83%
    21:00 +12°C° 0 mm 3 mps 747 mmHg 86%
    22:00 +12°C° 0 mm 3 mps 747 mmHg 88%
    23:00 +11°C° 0 mm 3 mps 746 mmHg 91%

    29 May, Friday

    Time Temperature Precipitation Wind Pressure Humidity
    00:00 +11°C° 0 mm 3 mps 746 mmHg 90%
    01:00 +11°C° 0 mm 3 mps 746 mmHg 90%
    02:00 +11°C° 0 mm 3 mps 745 mmHg 89%
    03:00 +11°C° 0.1 mm 3 mps 745 mmHg 89%
    04:00 +11°C° 0.1 mm 3 mps 745 mmHg 89%
    05:00 +11°C° 0.1 mm 3 mps 745 mmHg 89%
    06:00 +11°C° 0.2 mm 3 mps 745 mmHg 88%
    07:00 +12°C° 0.2 mm 4 mps 744 mmHg 87%
    08:00 +13°C° 0.2 mm 4 mps 744 mmHg 85%
    09:00 +13°C° 0.1 mm 4 mps 744 mmHg 84%
    10:00 +13°C° 0.1 mm 4 mps 744 mmHg 83%
    11:00 +14°C° 0.1 mm 4 mps 744 mmHg 82%
    12:00 +13°C° 0.2 mm 4 mps 744 mmHg 84%
    13:00 +13°C° 0.2 mm 4 mps 744 mmHg 85%
    14:00 +13°C° 0.2 mm 4 mps 744 mmHg 86%
    15:00 +14°C° 0.1 mm 5 mps 744 mmHg 82%
    16:00 +14°C° 0.1 mm 5 mps 744 mmHg 77%
    17:00 +15°C° 0.1 mm 6 mps 745 mmHg 73%
    18:00 +14°C° 0 mm 5 mps 745 mmHg 77%
    19:00 +13°C° 0 mm 4 mps 745 mmHg 81%
    20:00 +12°C° 0 mm 4 mps 745 mmHg 85%
    21:00 +12°C° 0 mm 4 mps 745 mmHg 87%
    22:00 +11°C° 0 mm 4 mps 745 mmHg 88%
    23:00 +10°C° 0 mm 4 mps 745 mmHg 89%

    30 May, Saturday

    Time Temperature Precipitation Wind Pressure Humidity
    00:00 +9°C° 0 mm 5 mps 745 mmHg 88%
    01:00 +9°C° 0 mm 5 mps 745 mmHg 86%
    02:00 +9°C° 0 mm 5 mps 745 mmHg 85%
    03:00 +9°C° 0 mm 5 mps 745 mmHg 84%
    04:00 +9°C° 0 mm 5 mps 745 mmHg 84%
    05:00 +9°C° 0 mm 5 mps 745 mmHg 83%
    06:00 +10°C° 0 mm 5 mps 745 mmHg 82%
    07:00 +10°C° 0 mm 5 mps 745 mmHg 81%
    08:00 +12°C° 0 mm 5 mps 745 mmHg 80%
    09:00 +12°C° 0 mm 5 mps 745 mmHg 79%
    10:00 +13°C° 0 mm 5 mps 745 mmHg 78%
    11:00 +13°C° 0 mm 5 mps 745 mmHg 77%
    12:00 +14°C° 0 mm 5 mps 744 mmHg 76%
    13:00 +14°C° 0 mm 5 mps 744 mmHg 75%
    14:00 +15°C° 0 mm 5 mps 744 mmHg 74%
    15:00 +15°C° 0 mm 5 mps 744 mmHg 75%
    16:00 +15°C° 0 mm 5 mps 743 mmHg 76%
    17:00 +15°C° 0 mm 5 mps 743 mmHg 77%
    18:00 +14°C° 0 mm 5 mps 743 mmHg 80%
    19:00 +13°C° 0 mm 4 mps 742 mmHg 83%
    20:00 +12°C° 0 mm 4 mps 742 mmHg 85%
    21:00 +12°C° 0 mm 4 mps 742 mmHg 87%
    22:00 +12°C° 0 mm 4 mps 741 mmHg 89%
    23:00 +12°C° 0 mm 5 mps 741 mmHg 91%

    31 May, Sunday

    Time Temperature Precipitation Wind Pressure Humidity
    00:00 +12°C° 0.3 mm 5 mps 740 mmHg 93%
    01:00 +12°C° 0.3 mm 5 mps 740 mmHg 95%
    02:00 +12°C° 0.3 mm 5 mps 739 mmHg 97%
    03:00 +12°C° 1.8 mm 5 mps 739 mmHg 97%
    04:00 +12°C° 1.8 mm 5 mps 739 mmHg 97%
    05:00 +12°C° 1.8 mm 5 mps 739 mmHg 97%
    06:00 +13°C° 2.3 mm 5 mps 739 mmHg 97%
    07:00 +13°C° 2.3 mm 5 mps 739 mmHg 97%
    08:00 +13°C° 2.3 mm 5 mps 739 mmHg 97%
    09:00 +13°C° 1.6 mm 4 mps 739 mmHg 97%
    10:00 +13°C° 1.6 mm 4 mps 740 mmHg 97%
    11:00 +13°C° 1.6 mm 4 mps 740 mmHg 97%
    12:00 +13°C° 2.6 mm 4 mps 740 mmHg 97%
    13:00 +13°C° 2.6 mm 4 mps 740 mmHg 97%
    14:00 +13°C° 2.6 mm 4 mps 741 mmHg 97%
    15:00 +13°C° 1.2 mm 4 mps 741 mmHg 97%
    16:00 +13°C° 1.2 mm 4 mps 741 mmHg 97%
    17:00 +13°C° 1.2 mm 4 mps 742 mmHg 97%
    18:00 +13°C° 0.2 mm 3 mps 742 mmHg 97%
    19:00 +12°C° 0.2 mm 3 mps 742 mmHg 97%
    20:00 +12°C° 0.2 mm 3 mps 742 mmHg 97%
    21:00 +12°C° 0.1 mm 3 mps 743 mmHg 97%
    22:00 +12°C° 0.1 mm 3 mps 743 mmHg 97%
    23:00 +12°C° 0.1 mm 3 mps 743 mmHg 97%
    Show more